sat.trackr.live / text

‹ back to catalog

STARLINK-6167

NORAD 57126 · 2023-090AB

PAYLOAD ACTIVE UNKNOWN

§ Identity

Operator
Country
US
Launch date
2023-06-23
Launch site
AFETR
Launch vehicle
Mass (kg)
RCS (m²)

Purposes: comms

External: N2YO · Heavens-Above · Gunter

§ Orbital elements

Epoch: 2026-05-24T21:43:01.682112Z

Period
94.27 min
Inclination
43.0006°
Eccentricity
0.0001710
Mean motion
15.27578131 rev/d
Perigee alt
481.9 km
Apogee alt
484.2 km
Semi-major
6,861.2 km
B*
3.0235e-5
RAAN
211.5393°
Arg perigee
301.8243°
Mean anomaly
58.2442°
Rev number
16,198

§ Raw data

STARLINK-61671 57126U 23090AB  26144.90488058  .00000570  00000+0  30235-4 0  99922 57126  43.0006 211.5393 0001710 301.8243  58.2442 15.27578131161980

JSON: /api/v1/satellites/57126 · /tle

For live sub-satellite position, see the globe view (requires WebGL).

§ Visibility from observer

Set your observer location to see the next 7 days of passes ≥ 10°. The values pass through the URL so the page stays shareable.

No JS? Fill the form by hand. The geolocation button needs JavaScript.